Weather History for Marysville, OH

Change the Weather History Date:

Friday, February 15, 2013

  Actual Average (KDLZ) Record (KDLZ)
Temperature  
Mean Temperature 30 °F -  
Max Temperature 34 °F 36 °F 69 °F (1954)
Min Temperature 25 °F 18 °F -11 °F (1978)
Degree Days  
Heating Degree Days 36    
Moisture  
Dew Point 25 °F    
Average Humidity 82    
Maximum Humidity 92    
Minimum Humidity 67    
Precipitation  
Precipitation 0.00 in - - ()
Sea Level Pressure  
Sea Level Pressure 30.03 in    
Wind  
Wind Speed 6 mph (WNW)    
Max Wind Speed 12 mph    
Max Gust Speed 20 mph    
Visibility 8 miles    
Events      
Averages and records for this station are not official NWS values.
T = Trace of Precipitation, MM = Missing Value Source: NWS Daily Summary

Daily Weather History Graph

Daily Weather History Graph

Search for Another Location

Airport:

Trip Planner

Search our weather history database for the weather conditions in past years. The results will help you decide how hot, cold, wet, or windy it might be!

Date:

Astronomy

Feb. 15, 2013 Rise Set
Actual Time 7:26 AM EST 6:09 PM EST
Civil Twilight 6:58 AM EST 6:37 PM EST
Nautical Twilight 6:26 AM EST 7:09 PM EST
Astronomical Twilight 5:55 AM EST 7:40 PM EST
Moon 10:01 AM EST (2/15) No Moon Set
Length of Visible Light 11h 38m
Length of Day
10h 43m
Waxing Crescent, 30% of the Moon is Illuminated
Feb 15
Waxing Crescent
Feb 17
First Quarter
Feb 25
Full
Mar 4
Last Quarter
Mar 11
New

Hourly Weather History & Observations

Time (EST) Temp. Windchill Dew Point Humidity Pressure Visibility Wind Dir Wind Speed Gust Speed Precip Events Conditions
12:14 AM 34.5 °F 27.3 °F 24.8 °F 68% 29.95 in 10.0 mi WNW 9.2 mph - N/A   Clear
12:34 AM 33.8 °F 27.7 °F 25.0 °F 70% 29.95 in 10.0 mi West 6.9 mph - N/A   Clear
12:54 AM 33.8 °F 27.0 °F 25.2 °F 71% 29.95 in 10.0 mi West 8.1 mph - N/A   Clear
1:14 AM 33.3 °F 25.1 °F 25.3 °F 73% 29.94 in 10.0 mi West 10.4 mph - N/A   Clear
1:34 AM 32.9 °F 25.3 °F 25.7 °F 75% 29.94 in 10.0 mi West 9.2 mph - N/A   Clear
1:54 AM 32.9 °F 25.3 °F 26.1 °F 76% 29.94 in 10.0 mi West 9.2 mph - N/A   Clear
2:14 AM 32.4 °F 25.3 °F 26.4 °F 79% 29.95 in 10.0 mi West 8.1 mph - N/A   Clear
2:34 AM 32.0 °F 26.4 °F 26.4 °F 80% 29.95 in 10.0 mi WSW 5.8 mph - N/A   Clear
2:54 AM 31.5 °F - 26.2 °F 81% 29.95 in 10.0 mi Calm Calm - N/A   Clear
3:14 AM 30.7 °F 26.0 °F 25.9 °F 82% 29.96 in 10.0 mi WSW 4.6 mph - N/A   Clear
3:34 AM 30.9 °F 26.2 °F 25.7 °F 81% 29.96 in 10.0 mi SW 4.6 mph - N/A   Clear
3:54 AM 30.2 °F 26.7 °F 25.9 °F 84% 29.96 in 10.0 mi SW 3.5 mph - N/A   Scattered Clouds
4:13 AM 29.1 °F 24.1 °F 25.2 °F 85% 29.97 in 10.0 mi SW 4.6 mph - N/A   Scattered Clouds
4:34 AM 28.6 °F 24.8 °F 25.5 °F 88% 29.96 in 10.0 mi West 3.5 mph - N/A   Scattered Clouds
4:54 AM 28.4 °F 24.6 °F 25.2 °F 88% 29.97 in 10.0 mi WSW 3.5 mph - N/A   Scattered Clouds
5:13 AM 28.4 °F 24.6 °F 25.5 °F 89% 29.98 in 10.0 mi WSW 3.5 mph - N/A   Mostly Cloudy
5:34 AM 29.8 °F 26.3 °F 26.4 °F 87% 29.99 in 10.0 mi West 3.5 mph - N/A   Overcast
5:54 AM 30.2 °F 25.4 °F 26.4 °F 86% 29.99 in 10.0 mi West 4.6 mph - N/A   Mostly Cloudy
6:13 AM 30.4 °F 25.6 °F 26.6 °F 86% 30.00 in 10.0 mi SW 4.6 mph - N/A   Mostly Cloudy
6:34 AM 30.2 °F 26.7 °F 26.8 °F 87% 30.00 in 10.0 mi WSW 3.5 mph - N/A   Mostly Cloudy
6:54 AM 30.0 °F 26.5 °F 26.6 °F 87% 30.00 in 10.0 mi West 3.5 mph - N/A   Overcast
7:13 AM 29.7 °F - 26.1 °F 86% 30.01 in 10.0 mi Calm Calm - N/A   Mostly Cloudy
7:34 AM 28.8 °F - 26.1 °F 90% 30.01 in 7.0 mi Calm Calm - N/A   Mostly Cloudy
7:53 AM 28.8 °F - 26.4 °F 91% 30.02 in 7.0 mi Calm Calm - N/A   Overcast
8:14 AM 29.7 °F - 27.5 °F 92% 30.03 in 5.0 mi Calm Calm - N/A   Overcast
8:34 AM 30.6 °F 27.1 °F 27.5 °F 88% 30.04 in 7.0 mi SW 3.5 mph - N/A   Overcast
8:54 AM 31.1 °F 27.7 °F 27.7 °F 87% 30.04 in 7.0 mi SW 3.5 mph - N/A   Overcast
9:14 AM 31.5 °F 28.1 °F 27.9 °F 87% 30.05 in 7.0 mi SW 3.5 mph - N/A   Overcast
9:34 AM 31.6 °F 28.3 °F 28.2 °F 87% 30.05 in 7.0 mi SW 3.5 mph - N/A   Overcast
9:54 AM 31.8 °F 27.3 °F 28.4 °F 87% 30.05 in 7.0 mi SW 4.6 mph - N/A   Overcast
10:14 AM 32.0 °F 27.5 °F 28.6 °F 87% 30.05 in 7.0 mi SW 4.6 mph - N/A   Overcast
10:34 AM 32.0 °F 28.7 °F 28.9 °F 88% 30.05 in 7.0 mi WSW 3.5 mph - N/A   Overcast
10:54 AM 32.2 °F 28.9 °F 26.6 °F 80% 30.05 in 5.0 mi WSW 3.5 mph - N/A   Overcast
11:14 AM 32.2 °F - 26.6 °F 80% 30.05 in 10.0 mi Calm Calm - N/A   Overcast
11:34 AM 32.0 °F - 26.6 °F 80% 30.05 in 2.5 mi Calm Calm - N/A   Overcast
11:54 AM 32.0 °F - 26.8 °F 81% 30.05 in 7.0 mi Calm Calm - N/A   Overcast
12:14 PM 30.7 °F 26.0 °F 27.5 °F 88% 30.04 in 2.0 mi North 4.6 mph - N/A   Overcast
12:54 PM 30.9 °F - 27.9 °F 88% 30.04 in 3.0 mi Calm Calm - N/A   Overcast
1:14 PM 31.5 °F - 28.0 °F 87% 30.03 in 4.0 mi Calm Calm - N/A   Overcast
1:33 PM 32.0 °F 26.4 °F 28.4 °F 87% 30.03 in 7.0 mi North 5.8 mph - N/A   Overcast
1:54 PM 32.0 °F 27.5 °F 28.4 °F 87% 30.03 in 4.0 mi North 4.6 mph - N/A   Overcast
2:14 PM 32.0 °F 27.5 °F 28.6 °F 87% 30.03 in 1.0 mi NNW 4.6 mph - N/A   Overcast
2:33 PM 32.0 °F 28.7 °F 28.9 °F 88% 30.03 in 4.0 mi North 3.5 mph - N/A   Overcast
2:54 PM 32.4 °F - 28.6 °F 86% 30.02 in 7.0 mi Calm Calm - N/A   Overcast
3:14 PM 33.4 °F 25.9 °F 29.1 °F 84% 30.02 in 10.0 mi WNW 9.2 mph - N/A   Overcast
3:34 PM 33.3 °F 26.4 °F 28.0 °F 81% 30.03 in 7.0 mi West 8.1 mph - N/A   Overcast
3:54 PM 32.9 °F 24.7 °F 28.2 °F 83% 30.03 in 7.0 mi NNW 10.4 mph - N/A   Overcast
4:14 PM 32.0 °F 25.6 °F 28.0 °F 85% 30.03 in 10.0 mi NNW 6.9 mph - N/A   Overcast
4:34 PM 32.0 °F 25.6 °F 28.0 °F 85% 30.04 in 10.0 mi NNW 6.9 mph - N/A   Overcast
4:54 PM 32.0 °F 25.6 °F 26.4 °F 80% 30.05 in 10.0 mi NNW 6.9 mph - N/A   Overcast
5:14 PM 31.6 °F 23.1 °F 27.3 °F 84% 30.05 in 10.0 mi North 10.4 mph - N/A   Overcast
5:33 PM 30.4 °F 21.0 °F 26.4 °F 85% 30.06 in 2.0 mi North 11.5 mph 17.3 mph N/A   Overcast
5:54 PM 29.7 °F 20.1 °F 24.8 °F 82% 30.06 in 10.0 mi North 11.5 mph 18.4 mph N/A   Overcast
6:14 PM 28.9 °F 20.4 °F 23.5 °F 80% 30.08 in 5.0 mi North 9.2 mph 19.6 mph N/A   Overcast
6:33 PM 28.4 °F 19.7 °F 23.7 °F 83% 30.08 in 3.0 mi North 9.2 mph - N/A   Overcast
6:54 PM 28.8 °F 23.7 °F 23.5 °F 81% 30.08 in 10.0 mi NNW 4.6 mph - N/A   Overcast
7:14 PM 28.4 °F 20.4 °F 23.0 °F 80% 30.08 in 10.0 mi North 8.1 mph - N/A   Overcast
7:33 PM 28.0 °F 21.7 °F 23.0 °F 81% 30.09 in 10.0 mi NNW 5.8 mph - N/A   Mostly Cloudy
7:54 PM 27.5 °F 22.2 °F 22.6 °F 82% 30.09 in 10.0 mi NNW 4.6 mph - N/A   Mostly Cloudy
8:14 PM 27.3 °F 23.4 °F 21.9 °F 80% 30.10 in 10.0 mi NW 3.5 mph - N/A   Mostly Cloudy
8:33 PM 26.6 °F 21.2 °F 21.6 °F 81% 30.10 in 10.0 mi NW 4.6 mph - N/A   Scattered Clouds
8:54 PM 25.9 °F 20.3 °F 21.2 °F 82% 30.10 in 10.0 mi WNW 4.6 mph - N/A   Scattered Clouds
9:14 PM 27.3 °F 22.0 °F 22.3 °F 81% 30.10 in 10.0 mi NW 4.6 mph - N/A   Overcast
9:33 PM 27.9 °F 21.5 °F 21.7 °F 78% 30.10 in 10.0 mi NW 5.8 mph - N/A   Overcast
9:54 PM 27.9 °F 22.6 °F 21.9 °F 78% 30.10 in 10.0 mi WNW 4.6 mph - N/A   Overcast
10:14 PM 27.7 °F 22.4 °F 21.4 °F 77% 30.10 in 10.0 mi NW 4.6 mph - N/A   Overcast
10:33 PM 27.1 °F 21.8 °F 20.8 °F 77% 30.10 in 10.0 mi NW 4.6 mph - N/A   Mostly Cloudy
10:54 PM 27.5 °F 20.2 °F 18.3 °F 68% 30.10 in 10.0 mi NW 6.9 mph - N/A   Overcast
11:14 PM 26.4 °F 18.9 °F 16.7 °F 67% 30.10 in 10.0 mi NNW 6.9 mph - N/A   Overcast
11:34 PM 25.5 °F 16.2 °F 16.7 °F 69% 30.10 in 10.0 mi NNW 9.2 mph - N/A   Scattered Clouds
11:53 PM 25.0 °F 14.8 °F 16.5 °F 70% 30.11 in 10.0 mi NNW 10.4 mph - N/A   Clear